User: anonymous   Login
Location: Unspecified
(0.0000°N, 0.0000°E)
Time: 06:48:30
(UTC+00:00)
Language:

LAPAN A2 - Orbit

View from above orbital plane
View from above orbital plane
View from above satellite
View from above satellite

Ground track
Ground track

The orbit data is extracted from the following two-line orbital elements,

1 40931U 15052B   17077.52886458  .00000768  00000-0  17998-4 0  9997
2 40931 006.0005 159.0747 0012964 040.2673 319.8867 14.76516958079546
Epoch (UTC): 18 March 2017 12:41:33
Eccentricity: 0.0012964
inclination: 6.0005°
perigee height: 631 km
apogee height: 649 km
right ascension of ascending node: 159.0747°
argument of perigee: 40.2673°
revolutions per day: 14.76516958
mean anomaly at epoch: 319.8867°
orbit number at epoch: 7954

The dashed part of the orbit path shows where the satellite is in the earth's shadow,  

DLR